STARLINK-34591

Last updated on Sat Aug 02 2025 00:02:05 GMT+0000 (Coordinated Universal Time)

1 64734U 25144L 25213.02591288 .00036486 00000+0 91762-3 0 9992 2 64734 53.1602 127.6799 0001006 49.1119 310.9972 15.39624702 5887
UTC large
Height (km)
Speed (km/s)
/
Latitude / Longitude
Inclination (degrees)
Orbital Period (minutes)
Azimuth
Elevation
Range (km)
Doppler Factor

Next 0 passes for location: London (51.5072 / 0.1276)

Sorry there are no passes over London.
STARLINK-34591